When you browse on this site, cookies collect data to enhance your experience and personalize the content and advertising you see.
Visit our Privacy Policy to learn more. By continuing to use the site, you agree to this use of cookies and data.
  • In Latvia
  • List of Countries
  • For 7 days
  • Water Temperature
  • Weather Map
  • Weather Widgets
  • user-avatar
    Login

    Hourly Weather Novodeviche

    Today, 22 January, Wednesday

    Time Temperature Precipitation Wind Pressure Humidity
    00:00 -5°C° 0.5 mm 8 mps 735 mmHg 95%
    01:00 -3°C° 0.6 mm 7 mps 735 mmHg 96%
    02:00 -3°C° 0.6 mm 6 mps 734 mmHg 97%
    03:00 -1°C° 0.6 mm 5 mps 733 mmHg 97%
    04:00 -1°C° 0.5 mm 5 mps 733 mmHg 97%
    05:00 -1°C° 0.5 mm 5 mps 732 mmHg 98%
    06:00 -1°C° 0.5 mm 5 mps 731 mmHg 98%
    07:00 -1°C° 0.2 mm 5 mps 731 mmHg 97%
    08:00 -1°C° 0.2 mm 5 mps 731 mmHg 97%
    09:00 -1°C° 0.2 mm 5 mps 731 mmHg 96%
    10:00 -2°C° 0 mm 6 mps 732 mmHg 92%
    11:00 -3°C° 0 mm 7 mps 732 mmHg 87%
    12:00 -5°C° 0 mm 8 mps 732 mmHg 83%
    13:00 -4°C° 0 mm 7 mps 733 mmHg 83%
    14:00 -5°C° 0 mm 6 mps 733 mmHg 83%
    15:00 -5°C° 0 mm 6 mps 734 mmHg 84%
    16:00 -5°C° 0 mm 5 mps 734 mmHg 86%
    17:00 -6°C° 0 mm 5 mps 734 mmHg 88%
    18:00 -5°C° 0 mm 4 mps 734 mmHg 90%
    19:00 -5°C° 0 mm 4 mps 734 mmHg 90%
    20:00 -7°C° 0 mm 4 mps 734 mmHg 90%
    21:00 -7°C° 0 mm 4 mps 734 mmHg 90%
    22:00 -7°C° 0 mm 4 mps 734 mmHg 91%
    23:00 -8°C° 0 mm 4 mps 734 mmHg 92%

    Tomorrow, 23 January, Thursday

    Time Temperature Precipitation Wind Pressure Humidity
    00:00 -7°C° 0 mm 3 mps 733 mmHg 92%
    01:00 -8°C° 0 mm 3 mps 733 mmHg 93%
    02:00 -8°C° 0 mm 3 mps 734 mmHg 93%
    03:00 -8°C° 0 mm 3 mps 734 mmHg 93%
    04:00 -8°C° 0 mm 3 mps 733 mmHg 93%
    05:00 -8°C° 0 mm 3 mps 733 mmHg 93%
    06:00 -8°C° 0 mm 3 mps 733 mmHg 93%
    07:00 -7°C° 0.3 mm 3 mps 733 mmHg 94%
    08:00 -6°C° 0.3 mm 3 mps 734 mmHg 94%
    09:00 -6°C° 0.3 mm 3 mps 734 mmHg 95%
    10:00 -7°C° 0.1 mm 4 mps 734 mmHg 93%
    11:00 -5°C° 0.1 mm 4 mps 734 mmHg 91%
    12:00 -6°C° 0.1 mm 5 mps 734 mmHg 89%
    13:00 -6°C° 0 mm 5 mps 735 mmHg 89%
    14:00 -7°C° 0 mm 4 mps 735 mmHg 88%
    15:00 -7°C° 0 mm 4 mps 736 mmHg 88%
    16:00 -8°C° 0 mm 4 mps 736 mmHg 89%
    17:00 -8°C° 0 mm 4 mps 737 mmHg 90%
    18:00 -9°C° 0 mm 4 mps 738 mmHg 92%
    19:00 -10°C° 0 mm 5 mps 739 mmHg 91%
    20:00 -10°C° 0 mm 5 mps 739 mmHg 91%
    21:00 -11°C° 0 mm 5 mps 740 mmHg 90%
    22:00 -11°C° 0 mm 5 mps 741 mmHg 90%
    23:00 -12°C° 0 mm 5 mps 741 mmHg 90%

    Day after tomorrow, 24 January, Friday

    Time Temperature Precipitation Wind Pressure Humidity
    00:00 -11°C° 0 mm 4 mps 742 mmHg 90%
    01:00 -11°C° 0 mm 4 mps 742 mmHg 91%
    02:00 -12°C° 0 mm 4 mps 743 mmHg 91%
    03:00 -12°C° 0 mm 4 mps 743 mmHg 91%
    04:00 -12°C° 0 mm 4 mps 744 mmHg 92%
    05:00 -14°C° 0 mm 4 mps 744 mmHg 92%
    06:00 -14°C° 0 mm 4 mps 744 mmHg 92%
    07:00 -14°C° 0 mm 4 mps 745 mmHg 91%
    08:00 -14°C° 0 mm 4 mps 746 mmHg 91%
    09:00 -14°C° 0 mm 4 mps 746 mmHg 91%
    10:00 -14°C° 0 mm 4 mps 747 mmHg 89%
    11:00 -12°C° 0 mm 4 mps 747 mmHg 88%
    12:00 -11°C° 0 mm 4 mps 747 mmHg 86%
    13:00 -11°C° 0 mm 4 mps 747 mmHg 86%
    14:00 -11°C° 0 mm 4 mps 747 mmHg 86%
    15:00 -11°C° 0 mm 4 mps 747 mmHg 86%
    16:00 -13°C° 0 mm 5 mps 746 mmHg 86%
    17:00 -13°C° 0 mm 5 mps 746 mmHg 87%
    18:00 -14°C° 0 mm 6 mps 746 mmHg 87%
    19:00 -15°C° 0 mm 6 mps 746 mmHg 86%
    20:00 -15°C° 0 mm 6 mps 746 mmHg 85%
    21:00 -15°C° 0 mm 6 mps 745 mmHg 84%
    22:00 -14°C° 0 mm 7 mps 745 mmHg 85%
    23:00 -14°C° 0 mm 7 mps 744 mmHg 86%

    25 January, Saturday

    Time Temperature Precipitation Wind Pressure Humidity
    00:00 -13°C° 0 mm 7 mps 743 mmHg 88%
    01:00 -13°C° 0.3 mm 7 mps 743 mmHg 90%
    02:00 -12°C° 0.3 mm 7 mps 742 mmHg 91%
    03:00 -12°C° 0.3 mm 7 mps 741 mmHg 93%
    04:00 -11°C° 0.4 mm 7 mps 740 mmHg 93%
    05:00 -11°C° 0.4 mm 7 mps 740 mmHg 93%
    06:00 -9°C° 0.4 mm 7 mps 739 mmHg 94%
    07:00 -8°C° 0.1 mm 6 mps 739 mmHg 93%
    08:00 -6°C° 0.1 mm 6 mps 739 mmHg 92%
    09:00 -5°C° 0.1 mm 5 mps 739 mmHg 91%
    10:00 -5°C° 0 mm 5 mps 739 mmHg 89%
    11:00 -4°C° 0 mm 5 mps 739 mmHg 88%
    12:00 -4°C° 0 mm 5 mps 739 mmHg 86%
    13:00 -3°C° 0 mm 4 mps 739 mmHg 87%
    14:00 -4°C° 0 mm 4 mps 739 mmHg 88%
    15:00 -4°C° 0 mm 3 mps 739 mmHg 89%
    16:00 -4°C° 0 mm 4 mps 738 mmHg 91%
    17:00 -4°C° 0 mm 4 mps 738 mmHg 94%
    18:00 -3°C° 0 mm 4 mps 737 mmHg 96%
    19:00 -4°C° 0.4 mm 5 mps 736 mmHg 97%
    20:00 -3°C° 0.4 mm 6 mps 736 mmHg 97%
    21:00 -2°C° 0.4 mm 7 mps 735 mmHg 97%
    22:00 -2°C° 0.4 mm 6 mps 734 mmHg 97%
    23:00 -3°C° 0.4 mm 6 mps 733 mmHg 97%

    26 January, Sunday

    Time Temperature Precipitation Wind Pressure Humidity
    00:00 -2°C° 0.4 mm 5 mps 732 mmHg 97%
    01:00 -2°C° 0.7 mm 5 mps 732 mmHg 97%
    02:00 -2°C° 0.7 mm 5 mps 732 mmHg 97%
    03:00 -2°C° 0.7 mm 5 mps 732 mmHg 97%
    04:00 -4°C° 0.4 mm 5 mps 732 mmHg 96%
    05:00 -4°C° 0.4 mm 5 mps 732 mmHg 94%
    06:00 -5°C° 0.4 mm 5 mps 732 mmHg 92%
    07:00 -5°C° 0 mm 6 mps 733 mmHg 91%
    08:00 -7°C° 0 mm 7 mps 734 mmHg 89%
    09:00 -8°C° 0 mm 7 mps 734 mmHg 87%
    10:00 -8°C° 0 mm 8 mps 735 mmHg 87%
    11:00 -7°C° 0 mm 8 mps 736 mmHg 88%
    12:00 -8°C° 0 mm 9 mps 737 mmHg 88%
    13:00 -8°C° 0 mm 9 mps 737 mmHg 87%
    14:00 -7°C° 0 mm 8 mps 738 mmHg 86%
    15:00 -7°C° 0 mm 8 mps 739 mmHg 86%
    16:00 -8°C° 0 mm 8 mps 740 mmHg 87%
    17:00 -8°C° 0 mm 7 mps 741 mmHg 88%
    18:00 -9°C° 0 mm 7 mps 742 mmHg 90%
    19:00 -11°C° 0 mm 7 mps 743 mmHg 89%
    20:00 -12°C° 0 mm 7 mps 744 mmHg 88%
    21:00 -14°C° 0 mm 7 mps 745 mmHg 87%
    22:00 -14°C° 0 mm 7 mps 746 mmHg 87%
    23:00 -15°C° 0 mm 7 mps 747 mmHg 87%

    27 January, Monday

    Time Temperature Precipitation Wind Pressure Humidity
    00:00 -15°C° 0 mm 7 mps 748 mmHg 88%
    01:00 -17°C° 0 mm 7 mps 749 mmHg 88%
    02:00 -17°C° 0 mm 7 mps 750 mmHg 88%
    03:00 -18°C° 0 mm 7 mps 751 mmHg 88%
    04:00 -18°C° 0 mm 7 mps 752 mmHg 89%
    05:00 -17°C° 0 mm 6 mps 752 mmHg 89%
    06:00 -18°C° 0 mm 6 mps 753 mmHg 89%
    07:00 -18°C° 0 mm 5 mps 754 mmHg 90%
    08:00 -18°C° 0 mm 5 mps 755 mmHg 90%
    09:00 -17°C° 0 mm 4 mps 756 mmHg 90%
    10:00 -17°C° 0 mm 4 mps 756 mmHg 89%
    11:00 -16°C° 0 mm 4 mps 756 mmHg 87%
    12:00 -15°C° 0 mm 4 mps 757 mmHg 86%
    13:00 -14°C° 0 mm 3 mps 757 mmHg 87%
    14:00 -13°C° 0 mm 2 mps 757 mmHg 88%
    15:00 -13°C° 0 mm 2 mps 757 mmHg 89%
    16:00 -13°C° 0 mm 2 mps 757 mmHg 89%
    17:00 -14°C° 0 mm 3 mps 757 mmHg 90%
    18:00 -13°C° 0 mm 3 mps 757 mmHg 90%
    19:00 -14°C° 0 mm 4 mps 757 mmHg 91%
    20:00 -13°C° 0 mm 5 mps 756 mmHg 92%
    21:00 -12°C° 0 mm 6 mps 756 mmHg 92%
    22:00 -11°C° 0.1 mm 6 mps 755 mmHg 90%
    23:00 -12°C° 0.1 mm 7 mps 755 mmHg 87%
    Show more